| time (UTC) | temp C | wind direction | speed KPH | gust KPH | rain 1hr cm | rain 24hr cm | rain mn cm | humidity % | barometer mb |
| 20260507192553 | 14 | 315 | 0.0 | 0.0 | 0.00 | 0.00 | 0.00 | 84 | 1010.8 |
| 20260507192042 | 14 | 315 | 0.0 | 0.0 | 0.00 | 0.00 | 0.00 | 84 | 1011.0 |
| 20260507191531 | 15 | 315 | 0.0 | 0.0 | 0.00 | 0.00 | 0.00 | 83 | 1010.9 |
| 20260507190512 | 15 | 248 | 0.0 | 0.0 | 0.00 | 0.00 | 0.00 | 83 | 1010.8 |
| 20260507190003 | 15 | 248 | 0.0 | 0.0 | 0.00 | 0.00 | 0.00 | 83 | 1011.0 |
| 20260507185459 | 15 | 135 | 0.0 | 0.0 | 0.00 | 0.00 | 0.00 | 83 | 1010.8 |
| 20260507184941 | 15 | 135 | 0.0 | 0.0 | 0.00 | 0.00 | 0.00 | 83 | 1010.9 |
| 20260507184431 | 15 | 135 | 0.0 | 0.0 | 0.00 | 0.00 | 0.00 | 82 | 1010.6 |
| 20260507183921 | 15 | 135 | 0.0 | 0.0 | 0.00 | 0.00 | 0.00 | 81 | 1010.7 |
| 20260507183411 | 15 | 135 | 0.0 | 0.0 | 0.00 | 0.00 | 0.00 | 81 | 1010.7 |
| 20260507181837 | 16 | 113 | 0.0 | 0.0 | 0.00 | 0.00 | 0.00 | 80 | 1010.5 |
| 20260507180821 | 16 | 158 | 0.0 | 0.0 | 0.00 | 0.00 | 0.00 | 78 | 1010.7 |
| 20260507180310 | 16 | 158 | 0.0 | 0.0 | 0.00 | 0.00 | 0.00 | 77 | 1010.5 |
| 20260507175800 | 16 | 113 | 0.0 | 0.0 | 0.00 | 0.00 | 0.00 | 77 | 1010.3 |
| 20260507175251 | 16 | 113 | 0.0 | 0.0 | 0.00 | 0.00 | 0.00 | 77 | 1010.5 |
| 20260507174740 | 16 | 135 | 0.0 | 0.0 | 0.00 | 0.00 | 0.00 | 77 | 1010.7 |
| 20260507174229 | 16 | 113 | 0.0 | 0.0 | 0.00 | 0.00 | 0.00 | 76 | 1010.8 |
| 20260507173719 | 16 | 113 | 0.0 | 0.0 | 0.00 | 0.00 | 0.00 | 76 | 1010.5 |
| 20260507172700 | 17 | 135 | 0.0 | 0.0 | 0.00 | 0.00 | 0.00 | 74 | 1010.6 |
| 20260507172149 | 17 | 113 | 0.0 | 0.0 | 0.00 | 0.00 | 0.00 | 74 | 1010.4 |
| 20260507171639 | 17 | 135 | 0.0 | 0.0 | 0.00 | 0.00 | 0.00 | 72 | 1010.5 |
| 20260507170619 | 17 | 135 | 0.0 | 0.0 | 0.00 | 0.00 | 0.00 | 68 | 1010.5 |
| 20260507170109 | 17 | 113 | 0.0 | 0.0 | 0.00 | 0.00 | 0.00 | 63 | 1010.6 |
| 20260507165601 | 17 | 158 | 0.0 | 0.0 | 0.00 | 0.00 | 0.00 | 65 | 1010.5 |
| 20260507165049 | 17 | 203 | 0.0 | 0.0 | 0.00 | 0.00 | 0.00 | 64 | 1010.6 |
| 20260507164539 | 18 | 113 | 0.0 | 0.0 | 0.00 | 0.00 | 0.00 | 62 | 1010.5 |
| 20260507164028 | 18 | 158 | 0.0 | 0.0 | 0.00 | 0.00 | 0.00 | 63 | 1010.6 |
| 20260507163008 | 18 | 135 | 0.0 | 0.0 | 0.00 | 0.00 | 0.00 | 61 | 1010.7 |
| 20260507162458 | 18 | 158 | 0.0 | 0.0 | 0.00 | 0.00 | 0.00 | 60 | 1010.6 |
| 20260507161947 | 18 | 180 | 0.0 | 0.0 | 0.00 | 0.00 | 0.00 | 61 | 1010.8 |
| 20260507161437 | 18 | 113 | 0.0 | 0.0 | 0.00 | 0.00 | 0.00 | 61 | 1010.6 |
| 20260507160928 | 18 | 158 | 0.0 | 0.0 | 0.00 | 0.00 | 0.00 | 61 | 1010.6 |
| 20260507160418 | 18 | 135 | 0.0 | 0.0 | 0.00 | 0.00 | 0.00 | 61 | 1010.7 |
| 20260507155907 | 18 | 158 | 0.0 | 0.0 | 0.00 | 0.00 | 0.00 | 61 | 1010.6 |
| 20260507154847 | 18 | 135 | 0.0 | 0.0 | 0.00 | 0.00 | 0.00 | 59 | 1010.6 |
| 20260507154338 | 18 | 135 | 0.0 | 0.0 | 0.00 | 0.00 | 0.00 | 60 | 1010.7 |
| 20260507152807 | 17 | 135 | 0.0 | 0.0 | 0.00 | 0.00 | 0.00 | 63 | 1010.7 |
| 20260507152256 | 17 | 135 | 0.0 | 0.0 | 0.00 | 0.00 | 0.00 | 66 | 1010.8 |
| 20260507151746 | 18 | 158 | 0.0 | 0.0 | 0.00 | 0.00 | 0.00 | 64 | 1010.7 |
| 20260507151237 | 18 | 113 | 0.0 | 0.0 | 0.00 | 0.00 | 0.00 | 64 | 1010.9 |
| 20260507150726 | 18 | 135 | 0.0 | 0.0 | 0.00 | 0.00 | 0.00 | 65 | 1010.8 |
| 20260507145706 | 18 | 158 | 0.0 | 0.0 | 0.00 | 0.00 | 0.00 | 65 | 1010.7 |
| 20260507145158 | 18 | 113 | 0.0 | 0.0 | 0.00 | 0.00 | 0.00 | 65 | 1010.9 |
| 20260507144646 | 18 | 158 | 0.0 | 0.0 | 0.00 | 0.00 | 0.00 | 66 | 1010.7 |
| 20260507144136 | 18 | 158 | 0.0 | 0.0 | 0.00 | 0.00 | 0.00 | 65 | 1010.8 |
| 20260507143626 | 18 | 158 | 0.0 | 0.0 | 0.00 | 0.00 | 0.00 | 67 | 1011.0 |
| 20260507142606 | 18 | 135 | 0.0 | 0.0 | 0.00 | 0.00 | 0.00 | 65 | 1011.0 |
| 20260507142055 | 18 | 135 | 0.0 | 0.0 | 0.00 | 0.00 | 0.00 | 65 | 1010.9 |
| 20260507141545 | 18 | 113 | 0.0 | 0.0 | 0.00 | 0.00 | 0.00 | 66 | 1011.1 |
| 20260507140525 | 18 | 158 | 0.0 | 0.0 | 0.00 | 0.00 | 0.00 | 64 | 1011.1 |
| 20260507140015 | 19 | 135 | 0.0 | 0.0 | 0.00 | 0.00 | 0.00 | 65 | 1011.0 |
| 20260507135510 | 18 | 113 | 0.0 | 0.0 | 0.00 | 0.00 | 0.00 | 64 | 1011.1 |
| 20260507134954 | 18 | 113 | 0.0 | 0.0 | 0.00 | 0.00 | 0.00 | 67 | 1011.4 |
| 20260507134444 | 18 | 113 | 0.0 | 0.0 | 0.00 | 0.00 | 0.00 | 67 | 1011.5 |
| 20260507133935 | 18 | 180 | 0.0 | 0.0 | 0.00 | 0.00 | 0.00 | 66 | 1011.3 |
| 20260507133424 | 18 | 113 | 0.0 | 0.0 | 0.00 | 0.00 | 0.00 | 64 | 1011.5 |
| 20260507132914 | 18 | 113 | 0.0 | 0.0 | 0.00 | 0.00 | 0.00 | 65 | 1011.4 |
| 20260507130833 | 19 | 135 | 0.0 | 0.0 | 0.00 | 0.00 | 0.00 | 63 | 1011.4 |
| 20260507130324 | 19 | 113 | 0.0 | 0.0 | 0.00 | 0.00 | 0.00 | 63 | 1011.2 |
| 20260507125813 | 19 | 113 | 0.0 | 0.0 | 0.00 | 0.00 | 0.00 | 62 | 1011.4 |
| 20260507125306 | 20 | 158 | 0.0 | 0.0 | 0.00 | 0.00 | 0.00 | 58 | 1011.6 |
| 20260507124243 | 20 | 135 | 0.0 | 0.0 | 0.00 | 0.00 | 0.00 | 61 | 1011.3 |
| 20260507123733 | 20 | 135 | 0.0 | 0.0 | 0.00 | 0.00 | 0.00 | 62 | 1011.3 |
| 20260507123223 | 19 | 113 | 0.0 | 0.0 | 0.00 | 0.00 | 0.00 | 62 | 1011.5 |
| 20260507122714 | 20 | 180 | 0.0 | 0.0 | 0.00 | 0.00 | 0.00 | 64 | 1011.2 |
| 20260507122203 | 18 | 113 | 0.0 | 0.0 | 0.00 | 0.00 | 0.00 | 65 | 1011.3 |
| 20260507121652 | 19 | 135 | 0.0 | 0.0 | 0.00 | 0.00 | 0.00 | 66 | 1011.5 |
| 20260507121142 | 19 | 158 | 0.0 | 0.0 | 0.00 | 0.00 | 0.00 | 65 | 1011.5 |
| 20260507120633 | 20 | 158 | 0.0 | 0.0 | 0.00 | 0.00 | 0.00 | 65 | 1011.2 |
| 20260507120125 | 20 | 113 | 0.0 | 0.0 | 0.00 | 0.00 | 0.00 | 67 | 1011.4 |
| 20260507115612 | 20 | 135 | 0.0 | 0.0 | 0.00 | 0.00 | 0.00 | 67 | 1011.3 |
| 20260507115104 | 19 | 113 | 0.0 | 0.0 | 0.00 | 0.00 | 0.00 | 68 | 1011.6 |
| 20260507114552 | 19 | 68 | 0.0 | 0.0 | 0.00 | 0.00 | 0.00 | 69 | 1011.5 |
| 20260507114042 | 20 | 135 | 0.0 | 0.0 | 0.00 | 0.00 | 0.00 | 68 | 1011.4 |
| 20260507113531 | 19 | 113 | 0.0 | 0.0 | 0.00 | 0.00 | 0.00 | 69 | 1011.6 |
| 20260507113023 | 19 | 113 | 0.0 | 0.0 | 0.00 | 0.00 | 0.00 | 68 | 1011.7 |
| 20260507112512 | 19 | 113 | 0.0 | 0.0 | 0.00 | 0.00 | 0.00 | 70 | 1011.8 |
| 20260507112002 | 18 | 113 | 0.0 | 0.0 | 0.00 | 0.00 | 0.00 | 70 | 1011.8 |
| 20260507111451 | 18 | 113 | 0.0 | 0.0 | 0.00 | 0.00 | 0.00 | 70 | 1011.9 |
| 20260507110941 | 19 | 203 | 0.0 | 0.0 | 0.00 | 0.00 | 0.00 | 68 | 1011.7 |
| 20260507110431 | 19 | 135 | 0.0 | 0.0 | 0.00 | 0.00 | 0.00 | 68 | 1011.9 |
| 20260507105921 | 20 | 113 | 0.0 | 0.0 | 0.00 | 0.00 | 0.00 | 70 | 1011.6 |
| 20260507105411 | 19 | 135 | 0.0 | 0.0 | 0.00 | 0.00 | 0.00 | 68 | 1011.7 |
| 20260507104351 | 18 | 135 | 0.0 | 0.0 | 0.00 | 0.00 | 0.00 | 67 | 1012.0 |
| 20260507103841 | 19 | 113 | 0.0 | 0.0 | 0.00 | 0.00 | 0.00 | 68 | 1011.8 |
| 20260507103331 | 20 | 135 | 0.0 | 0.0 | 0.00 | 0.00 | 0.00 | 68 | 1012.1 |
| 20260507102821 | 19 | 180 | 0.0 | 0.0 | 0.00 | 0.00 | 0.00 | 70 | 1012.1 |
| 20260507102310 | 18 | 135 | 0.0 | 0.0 | 0.00 | 0.00 | 0.00 | 68 | 1011.9 |
| 20260507101250 | 18 | 315 | 0.0 | 0.0 | 0.00 | 0.00 | 0.00 | 70 | 1012.2 |
| 20260507100740 | 18 | 248 | 0.0 | 0.0 | 0.00 | 0.00 | 0.00 | 71 | 1012.2 |
| 20260507100230 | 19 | 293 | 0.0 | 0.0 | 0.00 | 0.00 | 0.00 | 69 | 1012.3 |
| 20260507095209 | 19 | 225 | 0.0 | 0.0 | 0.00 | 0.00 | 0.00 | 70 | 1012.2 |
| 20260507094659 | 18 | 248 | 0.0 | 0.0 | 0.00 | 0.00 | 0.00 | 70 | 1012.3 |
| 20260507093639 | 18 | 203 | 0.0 | 0.0 | 0.00 | 0.00 | 0.00 | 69 | 1012.2 |
| 20260507093129 | 19 | 248 | 0.0 | 0.0 | 0.00 | 0.00 | 0.00 | 71 | 1012.3 |
| 20260507092619 | 18 | 180 | 0.0 | 0.0 | 0.00 | 0.00 | 0.00 | 70 | 1012.1 |
| 20260507092109 | 18 | 135 | 0.0 | 0.0 | 0.00 | 0.00 | 0.00 | 71 | 1012.2 |
| 20260507091559 | 17 | 90 | 0.0 | 0.0 | 0.00 | 0.00 | 0.00 | 72 | 1012.2 |
| 20260507091048 | 17 | 338 | 0.0 | 0.0 | 0.00 | 0.00 | 0.00 | 72 | 1012.1 |
| 20260507090538 | 17 | 90 | 0.0 | 0.0 | 0.00 | 0.00 | 0.00 | 72 | 1012.2 |
| 20260507090029 | 17 | 90 | 0.0 | 0.0 | 0.00 | 0.00 | 0.00 | 72 | 1012.1 |
| 20260507085518 | 17 | 135 | 0.0 | 0.0 | 0.00 | 0.00 | 0.00 | 70 | 1012.2 |
| 20260507085009 | 18 | 158 | 0.0 | 0.0 | 0.00 | 0.00 | 0.00 | 72 | 1012.1 |
| 20260507084458 | 17 | 158 | 0.0 | 0.0 | 0.00 | 0.00 | 0.00 | 73 | 1012.2 |
| 20260507083437 | 17 | 158 | 0.0 | 0.0 | 0.00 | 0.00 | 0.00 | 73 | 1012.6 |
| 20260507082928 | 17 | 180 | 0.0 | 0.0 | 0.00 | 0.00 | 0.00 | 74 | 1012.5 |
| 20260507082418 | 16 | 270 | 0.0 | 0.0 | 0.00 | 0.00 | 0.00 | 75 | 1012.7 |
| 20260507081907 | 16 | 293 | 0.0 | 0.0 | 0.00 | 0.00 | 0.00 | 77 | 1012.6 |
| 20260507081357 | 17 | 180 | 0.0 | 0.0 | 0.00 | 0.00 | 0.00 | 78 | 1012.6 |
| 20260507080847 | 16 | 180 | 0.0 | 0.0 | 0.00 | 0.00 | 0.00 | 77 | 1012.7 |
| 20260507080337 | 15 | 248 | 0.0 | 0.0 | 0.00 | 0.00 | 0.00 | 77 | 1012.5 |
| 20260507075827 | 16 | 225 | 0.0 | 0.0 | 0.00 | 0.00 | 0.00 | 81 | 1012.6 |
| 20260507075317 | 15 | 248 | 0.0 | 0.0 | 0.00 | 0.00 | 0.00 | 83 | 1012.6 |
| 20260507074808 | 14 | 270 | 0.0 | 0.0 | 0.00 | 0.00 | 0.00 | 87 | 1012.6 |
| 20260507074257 | 14 | 270 | 0.0 | 0.0 | 0.00 | 0.00 | 0.00 | 90 | 1012.6 |
| 20260507073747 | 13 | 248 | 0.0 | 0.0 | 0.00 | 0.00 | 0.00 | 93 | 1012.4 |
| 20260507073236 | 14 | 315 | 0.0 | 0.0 | 0.00 | 0.00 | 0.00 | 96 | 1012.6 |
| 20260507072727 | 13 | 338 | 0.0 | 0.0 | 0.00 | 0.00 | 0.00 | 96 | 1012.5 |
| 20260507072216 | 13 | 338 | 0.0 | 0.0 | 0.00 | 0.00 | 0.00 | 96 | 1012.5 |
| 20260507071706 | 12 | 338 | 0.0 | 0.0 | 0.00 | 0.00 | 0.00 | 96 | 1012.4 |
| 20260507071156 | 13 | 23 | 0.0 | 0.0 | 0.00 | 0.00 | 0.00 | 97 | 1012.7 |
| 20260507065116 | 12 | 270 | 0.0 | 0.0 | 0.00 | 0.00 | 0.00 | 97 | 1012.6 |
| 20260507064056 | 12 | 270 | 0.0 | 0.0 | 0.00 | 0.00 | 0.00 | 97 | 1012.5 |
| 20260507063544 | 12 | 270 | 0.0 | 0.0 | 0.00 | 0.00 | 0.00 | 97 | 1012.4 |
| 20260507063035 | 11 | 270 | 0.0 | 0.0 | 0.00 | 0.00 | 0.00 | 97 | 1012.4 |
| 20260507062015 | 11 | 270 | 0.0 | 0.0 | 0.00 | 0.00 | 0.00 | 97 | 1012.2 |
| 20260507061511 | 11 | 293 | 0.0 | 0.0 | 0.00 | 0.00 | 0.00 | 97 | 1012.3 |
| 20260507060444 | 11 | 293 | 0.0 | 0.0 | 0.00 | 0.00 | 0.00 | 97 | 1012.1 |
| 20260507055934 | 11 | 315 | 0.0 | 0.0 | 0.00 | 0.00 | 0.00 | 97 | 1012.2 |
| 20260507055425 | 11 | 315 | 0.0 | 0.0 | 0.00 | 0.00 | 0.00 | 97 | 1012.0 |
| 20260507054914 | 11 | 315 | 0.0 | 0.0 | 0.00 | 0.00 | 0.00 | 97 | 1012.1 |
| 20260507054403 | 10 | 315 | 0.0 | 0.0 | 0.00 | 0.00 | 0.00 | 97 | 1012.3 |
| 20260507053854 | 10 | 293 | 0.0 | 0.0 | 0.00 | 0.00 | 0.00 | 97 | 1012.1 |
| 20260507053344 | 10 | 315 | 0.0 | 0.0 | 0.00 | 0.00 | 0.00 | 97 | 1012.1 |
| 20260507052326 | 10 | 293 | 0.0 | 0.0 | 0.00 | 0.00 | 0.00 | 97 | 1012.0 |
| 20260507051814 | 10 | 315 | 0.0 | 0.0 | 0.00 | 0.00 | 0.00 | 97 | 1012.0 |
| 20260507051304 | 9 | 315 | 0.0 | 0.0 | 0.00 | 0.00 | 0.00 | 97 | 1012.0 |
| 20260507050242 | 9 | 315 | 0.0 | 0.0 | 0.00 | 0.00 | 0.00 | 97 | 1011.9 |
| 20260507045733 | 10 | 270 | 0.0 | 0.0 | 0.00 | 0.00 | 0.00 | 98 | 1012.0 |
| 20260507044713 | 8 | 23 | 0.0 | 0.0 | 0.00 | 0.00 | 0.00 | 97 | 1011.9 |
| 20260507044203 | 8 | 23 | 0.0 | 0.0 | 0.00 | 0.00 | 0.00 | 97 | 1011.9 |
| 20260507043653 | 9 | 23 | 0.0 | 0.0 | 0.00 | 0.00 | 0.00 | 97 | 1011.9 |
| 20260507043143 | 9 | 23 | 0.0 | 0.0 | 0.00 | 0.00 | 0.00 | 97 | 1012.0 |
| 20260507042123 | 9 | 23 | 0.0 | 0.0 | 0.00 | 0.00 | 0.00 | 97 | 1012.1 |
| 20260507041615 | 9 | 23 | 0.0 | 0.0 | 0.00 | 0.00 | 0.00 | 97 | 1011.8 |
| 20260507041102 | 9 | 23 | 0.0 | 0.0 | 0.00 | 0.00 | 0.00 | 97 | 1011.8 |
| 20260507040552 | 10 | 338 | 0.0 | 0.0 | 0.00 | 0.00 | 0.00 | 97 | 1011.8 |
| 20260507040052 | 9 | 315 | 0.0 | 0.0 | 0.00 | 0.00 | 0.00 | 97 | 1011.8 |
| 20260507035022 | 11 | 315 | 0.0 | 0.0 | 0.00 | 0.00 | 0.00 | 97 | 1011.6 |
| 20260507034513 | 11 | 315 | 0.0 | 0.0 | 0.00 | 0.00 | 0.00 | 97 | 1011.5 |
| 20260507034001 | 10 | 315 | 0.0 | 0.0 | 0.00 | 0.00 | 0.00 | 97 | 1011.7 |
| 20260507033452 | 10 | 315 | 0.0 | 0.0 | 0.00 | 0.00 | 0.00 | 97 | 1011.7 |
| 20260507032941 | 10 | 293 | 0.0 | 0.0 | 0.00 | 0.00 | 0.00 | 97 | 1011.7 |
| 20260507031921 | 10 | 293 | 0.0 | 0.0 | 0.00 | 0.00 | 0.00 | 97 | 1011.6 |
| 20260507030901 | 10 | 315 | 0.0 | 0.0 | 0.00 | 0.00 | 0.00 | 97 | 1011.7 |
| 20260507030350 | 11 | 315 | 0.0 | 0.0 | 0.00 | 0.00 | 0.00 | 97 | 1011.7 |
| 20260507025840 | 11 | 315 | 0.0 | 0.0 | 0.00 | 0.00 | 0.00 | 97 | 1011.7 |
| 20260507025330 | 11 | 315 | 0.0 | 0.0 | 0.00 | 0.00 | 0.00 | 97 | 1011.5 |
| 20260507024820 | 11 | 315 | 0.0 | 0.0 | 0.00 | 0.00 | 0.00 | 97 | 1011.8 |
| 20260507024310 | 12 | 293 | 0.0 | 0.0 | 0.00 | 0.00 | 0.00 | 97 | 1011.7 |
| 20260507023801 | 11 | 270 | 0.0 | 0.0 | 0.00 | 0.00 | 0.00 | 97 | 1011.7 |
| 20260507023249 | 11 | 270 | 0.0 | 0.0 | 0.00 | 0.00 | 0.00 | 97 | 1011.7 |
| 20260507022740 | 11 | 293 | 0.0 | 0.0 | 0.00 | 0.00 | 0.00 | 97 | 1011.7 |
| 20260507022229 | 11 | 315 | 0.0 | 0.0 | 0.00 | 0.00 | 0.00 | 97 | 1011.6 |
| 20260507021719 | 11 | 315 | 0.0 | 0.0 | 0.00 | 0.00 | 0.00 | 97 | 1011.7 |
| 20260507021209 | 11 | 293 | 0.0 | 0.0 | 0.00 | 0.00 | 0.00 | 97 | 1011.6 |
| 20260507020150 | 12 | 315 | 0.0 | 0.0 | 0.00 | 0.00 | 0.00 | 97 | 1011.6 |
| 20260507015639 | 12 | 293 | 0.0 | 0.0 | 0.00 | 0.00 | 0.00 | 97 | 1011.7 |
| 20260507014619 | 12 | 270 | 0.0 | 0.0 | 0.00 | 0.00 | 0.00 | 97 | 1011.8 |
| 20260507014110 | 12 | 293 | 0.0 | 0.0 | 0.00 | 0.00 | 0.00 | 97 | 1011.9 |
| 20260507013558 | 12 | 293 | 0.0 | 0.0 | 0.00 | 0.00 | 0.00 | 97 | 1011.8 |
| 20260507013049 | 12 | 293 | 0.0 | 0.0 | 0.00 | 0.00 | 0.00 | 97 | 1011.9 |
| 20260507012538 | 12 | 293 | 0.0 | 0.0 | 0.00 | 0.00 | 0.00 | 97 | 1011.7 |
| 20260507011008 | 12 | 338 | 0.0 | 0.0 | 0.00 | 0.00 | 0.00 | 97 | 1012.1 |
| 20260507010458 | 12 | 338 | 0.0 | 0.0 | 0.00 | 0.00 | 0.00 | 97 | 1012.1 |
| 20260507005948 | 12 | 338 | 0.0 | 0.0 | 0.00 | 0.00 | 0.00 | 97 | 1012.1 |
| 20260507005438 | 12 | 338 | 0.0 | 0.0 | 0.00 | 0.00 | 0.00 | 97 | 1012.2 |
| 20260507004927 | 12 | 315 | 0.0 | 0.0 | 0.00 | 0.00 | 0.00 | 97 | 1012.3 |
| 20260507004417 | 12 | 315 | 0.0 | 0.0 | 0.00 | 0.00 | 0.00 | 97 | 1012.2 |
| 20260507003907 | 12 | 315 | 0.0 | 0.0 | 0.00 | 0.00 | 0.00 | 97 | 1012.3 |
| 20260507002848 | 11 | 315 | 0.0 | 0.0 | 0.00 | 0.00 | 0.00 | 97 | 1012.3 |
| 20260507002338 | 12 | 315 | 0.0 | 0.0 | 0.00 | 0.00 | 0.00 | 97 | 1012.5 |
| 20260507001827 | 12 | 315 | 0.0 | 0.0 | 0.00 | 0.00 | 0.00 | 97 | 1012.3 |
| 20260507001310 | 12 | 0.0 | 0.0 | 0.00 | 0.00 | 0.00 | 97 | ||
| 20260507000151 | 11 | 315 | 0.0 | 0.0 | 0.00 | 0.00 | 0.00 | 87 | 1012.3 |
| 20260506235955 | 12 | 315 | 0.0 | 0.0 | 0.00 | 1.80 | 0.00 | 97 | 1012.3 |
| 20260506235444 | 12 | 315 | 0.0 | 0.0 | 0.00 | 1.80 | 0.00 | 97 | 1012.6 |
| 20260506234934 | 11 | 315 | 0.0 | 0.0 | 0.00 | 1.80 | 0.00 | 97 | 1012.6 |
| 20260506234424 | 12 | 315 | 0.0 | 0.0 | 0.00 | 1.80 | 0.00 | 97 | 1012.6 |
| 20260506233913 | 12 | 315 | 0.0 | 0.0 | 0.00 | 1.80 | 0.00 | 97 | 1012.7 |
| 20260506233404 | 12 | 315 | 0.0 | 0.0 | 0.00 | 1.80 | 0.00 | 97 | 1012.6 |
| 20260506232854 | 12 | 315 | 0.0 | 0.0 | 0.00 | 1.80 | 0.00 | 97 | 1012.7 |
| 20260506232344 | 12 | 315 | 0.0 | 0.0 | 0.00 | 1.80 | 0.00 | 97 | 1012.5 |
| 20260506231833 | 12 | 315 | 0.0 | 0.0 | 0.00 | 1.80 | 0.00 | 97 | 1012.5 |
| 20260506231323 | 12 | 293 | 0.0 | 0.0 | 0.00 | 1.80 | 0.00 | 97 | 1012.6 |
| 20260506230813 | 12 | 338 | 0.0 | 0.0 | 0.00 | 1.80 | 0.00 | 97 | 1012.7 |
| 20260506230303 | 12 | 338 | 0.0 | 0.0 | 0.00 | 1.80 | 0.00 | 97 | 1012.8 |
| 20260506225753 | 12 | 45 | 0.0 | 0.0 | 0.00 | 1.80 | 0.00 | 97 | 1012.8 |
| 20260506225243 | 12 | 315 | 0.0 | 0.0 | 0.00 | 1.80 | 0.00 | 97 | 1012.7 |
| 20260506224732 | 12 | 315 | 0.0 | 0.0 | 0.00 | 1.80 | 0.00 | 97 | 1012.7 |
| 20260506223714 | 12 | 315 | 0.0 | 0.0 | 0.00 | 1.80 | 0.00 | 96 | 1012.6 |
| 20260506222653 | 12 | 315 | 0.0 | 0.0 | 0.00 | 1.80 | 0.00 | 96 | 1012.6 |
| 20260506222142 | 12 | 315 | 0.0 | 0.0 | 0.00 | 1.80 | 0.00 | 96 | 1012.7 |
| 20260506221632 | 12 | 315 | 0.0 | 0.0 | 0.00 | 1.80 | 0.00 | 96 | 1012.5 |
| 20260506221123 | 12 | 315 | 0.0 | 0.0 | 0.00 | 1.80 | 0.00 | 96 | 1012.6 |
| 20260506220612 | 12 | 315 | 0.0 | 0.0 | 0.00 | 1.80 | 0.00 | 96 | 1012.6 |
| 20260506215041 | 12 | 293 | 0.0 | 0.0 | 0.00 | 1.80 | 2.59 | 96 | 1012.4 |
| 20260506214532 | 12 | 315 | 0.0 | 0.0 | 0.00 | 1.80 | 2.59 | 96 | 1012.4 |
| 20260506214021 | 12 | 315 | 0.0 | 0.0 | 0.00 | 1.80 | 2.59 | 96 | 1012.5 |
| 20260506213511 | 12 | 315 | 0.0 | 0.0 | 0.00 | 1.80 | 2.59 | 96 | 1012.5 |
| 20260506213002 | 12 | 315 | 0.0 | 0.0 | 0.00 | 1.80 | 2.59 | 96 | 1012.5 |
| 20260506211431 | 12 | 0 | 0.0 | 0.0 | 0.00 | 1.80 | 2.59 | 96 | 1012.6 |
| 20260506210920 | 12 | 338 | 0.0 | 0.0 | 0.03 | 1.80 | 2.59 | 96 | 1012.4 |
| 20260506210410 | 12 | 270 | 0.0 | 0.0 | 0.03 | 1.80 | 2.59 | 96 | 1012.4 |
| 20260506205900 | 12 | 270 | 0.0 | 0.0 | 0.03 | 1.80 | 2.59 | 96 | 1012.4 |
| 20260506205350 | 12 | 315 | 0.0 | 0.0 | 0.05 | 1.80 | 2.59 | 96 | 1012.5 |
| 20260506204841 | 12 | 113 | 0.0 | 0.0 | 0.10 | 1.80 | 2.59 | 96 | 1012.6 |
| 20260506204329 | 12 | 113 | 0.0 | 0.0 | 0.10 | 1.80 | 2.59 | 96 | 1012.5 |
| 20260506203820 | 12 | 113 | 0.0 | 0.0 | 0.10 | 1.80 | 2.59 | 96 | 1012.6 |
| 20260506203309 | 12 | 113 | 0.0 | 0.0 | 0.10 | 1.80 | 2.59 | 96 | 1012.4 |
| 20260506202800 | 12 | 338 | 0.0 | 0.0 | 0.10 | 1.80 | 2.59 | 96 | 1012.3 |
| 20260506201739 | 12 | 293 | 0.0 | 0.0 | 0.10 | 1.80 | 2.59 | 96 | 1012.3 |
| 20260506201230 | 12 | 23 | 0.0 | 0.0 | 0.05 | 1.78 | 2.54 | 96 | 1012.5 |
| 20260506200719 | 12 | 338 | 0.0 | 0.0 | 0.05 | 1.78 | 2.54 | 96 | 1012.2 |
| 20260506200209 | 12 | 338 | 0.0 | 0.0 | 0.05 | 1.78 | 2.54 | 96 | 1012.0 |
| 20260506195659 | 12 | 338 | 0.0 | 0.0 | 0.03 | 1.75 | 2.51 | 96 | 1012.2 |
| 20260506194640 | 12 | 315 | 0.0 | 0.0 | 0.00 | 1.70 | 2.49 | 96 | 1012.0 |
| 20260506193618 | 12 | 338 | 0.0 | 0.0 | 0.00 | 1.70 | 2.49 | 96 | 1011.7 |
| 20260506193109 | 12 | 315 | 0.0 | 0.0 | 0.00 | 1.70 | 2.49 | 96 | 1011.6 |